Location: Vale
(35.4830°N, 81.3830°W)
Time: 18:58:44
(UTC-05:00)

Amateur Radio Satellites - All Passes

Search period start: 21 December 2014 18:28
Search period end: 22 December 2014 18:28
Location: Vale, 35.4830°N, 81.3830°W

Satellite Date Start Highest point End Downlink Frequencies (MHz)
Time Altitude Azimuth
CUTE-I 21 Dec 18:30:14 18:35:20 48° 260° (W) 18:40:28 437.470
PRISM 21 Dec 18:33:49 18:37:57 69° 102° (ESE) 18:42:03 437.425
STRAND 1 21 Dec 18:37:21 18:41:46 29° 97° (E) 18:46:08 437.568
HO-68 21 Dec 19:04:48 19:09:41 20° 60° (ENE) 19:14:35 435.675
RS-15 21 Dec 19:06:16 19:15:07 26° 37° (NE) 19:24:12 29.354- 29.394
DANDE 21 Dec 19:26:44 19:32:36 22° 70° (ENE) 19:38:50 436.750
ISS 21 Dec 19:32:06 19:34:42 21° 32° (NNE) 19:37:16 145.825
CUBESAT XI-V 21 Dec 19:39:00 19:43:24 46° 286° (WNW) 19:47:47 437.345
SO-50 21 Dec 19:40:27 19:42:41 14° 107° (ESE) 19:44:56 436.795
BRITE-PL 21 Dec 19:46:45 19:49:54 21° 70° (ENE) 19:53:03 437.365/2234.400
AAUSAT CUBESAT 2 21 Dec 19:59:03 20:01:48 17° 68° (ENE) 20:04:34 437.432
GOMX 1 21 Dec 20:07:12 20:10:36 25° 71° (ENE) 20:14:01 467.674
CUSAT 1 21 Dec 20:11:23 20:19:08 51° 77° (ENE) 20:27:19 437.405
CANX-2 21 Dec 20:15:17 20:19:22 47° 74° (ENE) 20:23:30 2200.000
STRAND 1 21 Dec 20:16:32 20:20:49 28° 291° (WNW) 20:25:06 437.568
DOVE 4 21 Dec 20:26:53 20:30:30 30° 72° (ENE) 20:34:11 437.250
COMPASS 1 21 Dec 20:33:43 20:37:47 50° 74° (ENE) 20:41:54 437.405
SEEDS 21 Dec 20:40:45 20:44:58 76° 76° (ENE) 20:49:14 437.485
CINEMA 3 21 Dec 20:43:37 20:47:08 27° 71° (ENE) 20:50:43 145.822/145.860
DELFI C3 21 Dec 20:44:01 20:47:12 22° 70° (ENE) 20:50:25 145.870
CUTE 1.7 + AOD 2 21 Dec 20:45:45 20:50:00 80° 258° (WSW) 20:54:19 437.475
HO-68 21 Dec 20:49:30 20:56:39 72° 256° (WSW) 21:03:50 435.675
FUNcube-1 21 Dec 20:52:16 20:54:35 15° 67° (ENE) 20:56:55 145.935
UWE-3 21 Dec 20:55:20 20:58:18 19° 68° (ENE) 21:01:20 435.000/436.395/437.385
DX 1 21 Dec 21:06:06 21:10:09 40° 72° (ENE) 21:14:12 434.975-435.025
ISS 21 Dec 21:08:19 21:11:20 35° 228° (SW) 21:14:20 145.825
DANDE 21 Dec 21:08:34 21:16:36 80° 264° (W) 21:25:18 436.750
AISAT 21 Dec 21:15:13 21:17:58 16° 67° (ENE) 21:20:42 437.250
HUMSAT D 21 Dec 21:17:06 21:19:39 16° 68° (ENE) 21:22:14 437.325/437.525
RS-15 21 Dec 21:17:54 21:29:18 85° 61° (ENE) 21:41:14 29.354- 29.394
SO-50 21 Dec 21:18:17 21:22:41 52° 303° (WNW) 21:27:14 436.795
BEESAT 2 21 Dec 21:23:26 21:26:02 16° 49° (NE) 21:28:36 435.950
BRITE-PL 21 Dec 21:24:55 21:28:20 24° 264° (W) 21:31:42 437.365/2234.400
Oscar 11 21 Dec 21:26:10 21:30:29 89° 250° (WSW) 21:34:52 145.826/435.025
AAUSAT CUBESAT 2 21 Dec 21:33:23 21:37:11 33° 263° (W) 21:41:01 437.432
UKube-1 21 Dec 21:35:30 21:39:50 88° 76° (ENE) 21:44:11 .
GOMX 1 21 Dec 21:45:38 21:48:43 20° 265° (W) 21:51:49 467.674
PCSat 21 Dec 21:50:21 21:53:30 15° 48° (NE) 21:56:39 145.827
CANX-2 21 Dec 21:53:56 21:55:32 12° 268° (W) 21:57:08 2200.000
CUBEBUG 2 21 Dec 21:54:50 21:58:58 68° 259° (W) 22:03:13 437.445
CUSAT 1 21 Dec 21:54:54 22:01:57 35° 271° (W) 22:09:19 437.405
ZACube-1 21 Dec 21:59:57 22:04:07 84° 258° (WSW) 22:08:23 437.345
DOVE 4 21 Dec 22:05:42 22:08:22 17° 266° (W) 22:11:03 437.250
TIGRISAT 21 Dec 22:05:44 22:08:50 17° 94° (E) 22:11:56 435.000
VELOX 1 21 Dec 22:05:53 22:10:14 61° 75° (ENE) 22:14:36 145.980
COMPASS 1 21 Dec 22:12:42 22:13:46 11° 269° (W) 22:14:50 437.405
ESTCUBE 1 21 Dec 22:13:31 22:17:22 28° 70° (ENE) 22:21:14 437.505/2401.250
50 SAT 21 Dec 22:18:56 22:22:55 72° 76° (ENE) 22:26:57 437.505
DELFI C3 21 Dec 22:19:00 22:22:20 24° 264° (W) 22:25:42 145.870
BEESAT 3 21 Dec 22:19:19 22:23:28 66° 60° (ENE) 22:27:32 437.485
DUCHIFAT 1 21 Dec 22:20:35 22:22:49 14° 93° (E) 22:25:03 145.980
CINEMA 3 21 Dec 22:21:21 22:24:21 19° 266° (W) 22:27:23 145.822/145.860
FUNcube-1 21 Dec 22:26:39 22:30:33 39° 262° (W) 22:34:32 145.935
UWE-3 21 Dec 22:31:00 22:34:38 29° 263° (W) 22:38:20 435.000/436.395/437.385
AIST 2 21 Dec 22:33:28 22:37:29 37° 56° (NE) 22:41:24 435.215
QB50P2 21 Dec 22:34:11 22:37:28 21° 95° (E) 22:40:44 145.880/145.840
UNISAT 6 21 Dec 22:34:32 22:38:55 37° 98° (E) 22:43:16 437.425
POLYITAN 1 21 Dec 22:43:10 22:46:50 27° 97° (E) 22:50:30 437.675
DX 1 21 Dec 22:44:05 22:46:31 15° 266° (W) 22:48:59 434.975-435.025
NANOSAT C BR1 21 Dec 22:44:15 22:47:54 27° 97° (E) 22:51:32 145.865
AISAT 21 Dec 22:50:07 22:54:15 39° 261° (W) 22:58:23 437.250
CUBEBUG 1 21 Dec 22:51:05 22:55:25 71° 76° (ENE) 22:59:46 437.445
HUMSAT D 21 Dec 22:51:23 22:55:08 34° 262° (W) 22:58:58 437.325/437.525
DANDE 21 Dec 22:55:05 22:59:08 15° 277° (W) 23:03:19 436.750
QB50P1 21 Dec 22:58:35 23:02:37 41° 99° (E) 23:06:39 145.935-145.965
BEESAT 2 21 Dec 23:00:30 23:04:31 46° 245° (WSW) 23:08:27 435.950
YUBILEINY 21 Dec 23:03:53 23:11:20 33° 85° (E) 23:18:44 435.215
ANTELSAT 21 Dec 23:06:19 23:11:05 85° 103° (ESE) 23:15:48 437.575/2403.000
POPSAT HIP 1 21 Dec 23:27:16 23:31:33 87° 283° (WNW) 23:35:50 437.405
PCSat 21 Dec 23:32:04 23:37:29 74° 246° (WSW) 23:42:51 145.827
RS-15 21 Dec 23:32:26 23:40:22 22° 259° (WSW) 23:48:34 29.354- 29.394
TIGRISAT 21 Dec 23:41:17 23:45:41 41° 287° (WNW) 23:50:06 435.000
TISAT 1 21 Dec 23:46:16 23:50:27 71° 76° (ENE) 23:54:38 437.305
BUGSAT 1 21 Dec 23:47:19 23:51:20 62° 285° (WNW) 23:55:22 437.445
ESTCUBE 1 21 Dec 23:50:35 23:54:11 23° 264° (W) 23:57:48 437.505/2401.250
SPROUT 21 Dec 23:53:51 23:58:07 80° 77° (ENE) 00:02:24 437.525
DUCHIFAT 1 21 Dec 23:54:50 23:58:49 40° 287° (WNW) 00:02:49 145.980
BEESAT 21 Dec 23:58:55 00:01:27 14° 65° (ENE) 00:04:00 436.000
O/OREOS (USA 219) 22 Dec 00:07:56 00:12:05 40° 105° (ESE) 00:16:15 437.305
AUBIESAT-1 22 Dec 00:09:03 00:10:00 11° 58° (ENE) 00:10:57 437.475
QB50P2 22 Dec 00:09:43 00:13:19 27° 289° (WNW) 00:16:56 145.880/145.840
UNISAT 6 22 Dec 00:12:01 00:15:24 20° 292° (WNW) 00:18:47 437.425
AIST 2 22 Dec 00:12:58 00:15:46 17° 251° (WSW) 00:18:32 435.215
POLYITAN 1 22 Dec 00:19:19 00:22:36 22° 291° (WNW) 00:25:53 437.675
NANOSAT C BR1 22 Dec 00:20:22 00:23:35 21° 291° (WNW) 00:26:48 145.865
M-CUBED/EXP-1 PRIME 22 Dec 00:32:43 00:36:19 21° 63° (ENE) 00:39:57 437.505
QB50P1 22 Dec 00:35:46 00:38:08 15° 293° (WNW) 00:40:30 145.935-145.965
VERMONT LUNAR 22 Dec 00:53:35 00:54:35 11° 141° (SE) 00:55:36 437.305
YUBILEINY 22 Dec 00:59:25 01:07:44 48° 282° (WNW) 01:16:05 435.215
SWISSCUBE 22 Dec 01:09:15 01:14:03 88° 76° (ENE) 01:18:52 437.505
ITUPSAT 1 22 Dec 01:10:18 01:15:06 82° 76° (ENE) 01:19:56 437.325
Oscar 19 22 Dec 01:12:28 01:16:53 28° 96° (E) 01:21:16 437.125/150
PHONESAT 2.4 22 Dec 01:14:37 01:15:07 10° 140° (SE) 01:15:37 2401.200-2431.200
ITAMSAT 1 22 Dec 01:32:39 01:35:25 14° 93° (E) 01:38:11 435.822/435.867
BEESAT 22 Dec 01:34:08 01:38:48 54° 260° (W) 01:43:30 436.000
AUBIESAT-1 22 Dec 01:39:22 01:44:10 88° 253° (WSW) 01:49:05 437.475
O/OREOS (USA 219) 22 Dec 01:48:47 01:51:38 17° 301° (WNW) 01:54:30 437.305
M-CUBED/EXP-1 PRIME 22 Dec 02:06:26 02:10:57 41° 257° (WSW) 02:15:36 437.505
STARS 22 Dec 02:08:21 02:12:29 43° 73° (ENE) 02:16:39 437.465
KKS-1 22 Dec 02:14:51 02:19:16 82° 76° (ENE) 02:23:43 437.445
VERMONT LUNAR 22 Dec 02:28:56 02:32:26 63° 154° (SSE) 02:35:55 437.305
PHONESAT 2.4 22 Dec 02:49:44 02:53:17 58° 153° (SSE) 02:56:52 2401.200-2431.200
Oscar 19 22 Dec 02:51:38 02:56:08 30° 291° (WNW) 03:00:37 437.125/150
AIST 1 22 Dec 02:52:54 02:55:36 16° 74° (ENE) 02:58:18
AO-7 22 Dec 02:56:44 02:59:42 12° 90° (E) 03:02:38 29.400- 29.500
ITAMSAT 1 22 Dec 03:10:09 03:15:12 56° 287° (WNW) 03:20:15 435.822/435.867
Gurwin Techsat 1B 22 Dec 03:13:39 03:18:59 86° 283° (WNW) 03:24:17 435.225
MOZHAYETS 4 22 Dec 03:36:15 03:39:18 18° 67° (ENE) 03:42:21
HORYU 2 22 Dec 03:40:44 03:45:15 71° 102° (ESE) 03:49:44 437.375
STARS 22 Dec 03:46:55 03:49:09 14° 267° (W) 03:51:23 437.465
VERMONT LUNAR 22 Dec 04:07:29 04:10:51 41° 350° (N) 04:14:13 437.305
PHONESAT 2.4 22 Dec 04:28:35 04:32:04 43° 349° (N) 04:35:33 2401.200-2431.200
AIST 1 22 Dec 04:29:32 04:33:19 32° 269° (W) 04:37:05
AO-7 22 Dec 04:45:07 04:53:32 79° 106° (ESE) 05:01:52 29.400- 29.500
GONETS M04 22 Dec 04:58:22 05:06:21 40° 87° (E) 05:14:20
CUBESAT XI-V 22 Dec 05:05:57 05:06:55 11° 64° (ENE) 05:07:54 437.345
MOZHAYETS 4 22 Dec 05:11:49 05:16:10 40° 262° (W) 05:20:33
PRISM 22 Dec 05:21:45 05:25:34 34° 72° (ENE) 05:29:23 437.425
JAS-2 22 Dec 05:23:08 05:28:36 65° 101° (E) 05:33:43 435.910
VERMONT LUNAR 22 Dec 05:46:16 05:49:35 37° 7° (N) 05:52:54 437.305
STRAND 1 22 Dec 05:50:25 05:54:53 31° 69° (ENE) 05:59:21 437.568
SO-50 22 Dec 05:52:25 05:57:16 60° 58° (ENE) 06:02:07 436.795
PHONESAT 2.4 22 Dec 06:07:46 06:11:10 38° 6° (N) 06:14:35 2401.200-2431.200
Cubesat XI-IV 22 Dec 06:17:37 06:22:39 42° 99° (E) 06:27:40 437.490
CUBESAT XI-V 22 Dec 06:39:05 06:43:44 69° 259° (WSW) 06:48:24 437.345
AO-7 22 Dec 06:39:30 06:45:22 22° 304° (WNW) 06:51:15 29.400- 29.500
CUTE-I 22 Dec 06:50:11 06:55:32 88° 104° (ESE) 07:00:51 437.470
GONETS M04 22 Dec 06:54:55 07:03:02 40° 284° (WNW) 07:11:13
PRISM 22 Dec 06:58:28 07:01:09 16° 266° (W) 07:03:51 437.425
JAS-2 22 Dec 07:10:29 07:12:58 13° 299° (WNW) 07:15:23 435.910
VERMONT LUNAR 22 Dec 07:24:34 07:28:06 84° 203° (SSW) 07:31:38 437.305
STRAND 1 22 Dec 07:29:48 07:34:01 26° 264° (W) 07:38:15 437.568
SO-50 22 Dec 07:34:50 07:37:17 14° 253° (WSW) 07:39:45 436.795
PHONESAT 2.4 22 Dec 07:46:27 07:50:05 88° 202° (SSW) 07:53:43 2401.200-2431.200
BRITE-PL 22 Dec 07:55:45 07:56:29 10° 92° (E) 07:57:13 437.365/2234.400
Cubesat XI-IV 22 Dec 07:58:29 08:02:24 21° 294° (WNW) 08:06:19 437.490
CANX-2 22 Dec 08:06:46 08:07:37 11° 91° (E) 08:08:28 2200.000
GOMX 1 22 Dec 08:12:50 08:14:33 12° 92° (E) 08:16:18 467.674
HO-68 22 Dec 08:21:27 08:27:13 26° 96° (E) 08:32:56 435.675
COMPASS 1 22 Dec 08:23:39 08:24:27 10° 91° (E) 08:25:16 437.405
DOVE 4 22 Dec 08:29:45 08:32:03 13° 93° (E) 08:34:23 437.250
SEEDS 22 Dec 08:29:53 08:32:34 16° 93° (E) 08:35:14 437.485
CUTE-I 22 Dec 08:33:55 08:34:48 10° 299° (WNW) 08:35:41 437.470
CUTE 1.7 + AOD 2 22 Dec 08:35:04 08:38:27 22° 95° (E) 08:41:47 437.475
VERMONT LUNAR 22 Dec 09:03:53 09:06:03 16° 217° (SW) 09:08:13 437.305
TIGRISAT 22 Dec 09:04:36 09:05:09 10° 63° (ENE) 09:05:43 435.000
MaSat-1 22 Dec 09:11:28 09:12:36 13° 299° (WNW) 09:13:44 437.345
Oscar 11 22 Dec 09:17:32 09:20:49 21° 95° (E) 09:24:05 145.826/435.025
AAUSAT CUBESAT 2 22 Dec 09:19:40 09:23:45 46° 99° (E) 09:27:48 437.432
YUBILEINY 22 Dec 09:20:03 09:23:09 12° 63° (ENE) 09:26:15 435.215
CUSAT 1 22 Dec 09:20:50 09:24:13 45° 92° (E) 09:28:43 437.405
PHONESAT 2.4 22 Dec 09:25:59 09:28:26 17° 216° (SW) 09:30:53 2401.200-2431.200
QB50P2 22 Dec 09:26:35 09:28:03 12° 65° (ENE) 09:29:30 145.880/145.840
UKube-1 22 Dec 09:27:28 09:30:29 18° 95° (E) 09:33:30 .
BRITE-PL 22 Dec 09:30:26 09:35:15 73° 284° (WNW) 09:40:27 437.365/2234.400
UNISAT 6 22 Dec 09:31:36 09:34:58 22° 69° (ENE) 09:38:26 437.425
RS-15 22 Dec 09:33:20 09:37:39 13° 98° (E) 09:41:57 29.354- 29.394
POLYITAN 1 22 Dec 09:35:05 09:37:27 15° 67° (ENE) 09:39:49 437.675
NANOSAT C BR1 22 Dec 09:35:41 09:38:03 15° 67° (ENE) 09:40:25 145.865
CANX-2 22 Dec 09:39:37 09:43:50 54° 285° (WNW) 09:48:01 2200.000
GOMX 1 22 Dec 09:48:04 09:52:54 67° 284° (WNW) 09:58:04 467.674
CUBEBUG 2 22 Dec 09:49:03 09:53:16 32° 97° (E) 09:57:32 437.445
QB50P1 22 Dec 09:49:28 09:52:40 22° 69° (ENE) 09:55:53 145.935-145.965
ZACube-1 22 Dec 09:52:13 09:55:57 25° 96° (E) 09:59:42 437.345
COMPASS 1 22 Dec 09:56:18 10:00:27 52° 285° (WNW) 10:04:34 437.405
VELOX 1 22 Dec 10:01:18 10:03:47 15° 94° (E) 10:06:15 145.980
DELFI C3 22 Dec 10:01:49 10:05:54 58° 100° (E) 10:09:55 145.870
ANTELSAT 22 Dec 10:02:42 10:06:55 50° 74° (ENE) 10:11:16 437.575/2403.000
50 SAT 22 Dec 10:04:03 10:05:58 13° 93° (E) 10:07:54 437.505
SEEDS 22 Dec 10:04:34 10:08:28 35° 288° (WNW) 10:12:21 437.485
DOVE 4 22 Dec 10:05:13 10:10:01 60° 285° (WNW) 10:15:04 437.250
HO-68 22 Dec 10:08:16 10:15:08 52° 291° (WNW) 10:21:58 435.675
CUTE 1.7 + AOD 2 22 Dec 10:10:42 10:14:17 26° 289° (WNW) 10:17:52 437.475
CINEMA 3 22 Dec 10:17:18 10:22:07 74° 284° (WNW) 10:27:04 145.822/145.860
POPSAT HIP 1 22 Dec 10:17:28 10:21:29 46° 74° (ENE) 10:25:31 437.405
FUNcube-1 22 Dec 10:17:52 10:22:16 47° 99° (E) 10:26:42 145.935
O/OREOS (USA 219) 22 Dec 10:20:35 10:24:57 47° 67° (ENE) 10:29:19 437.305
DANDE 22 Dec 10:21:45 10:24:57 35° 287° (WNW) 10:29:09 436.750
UWE-3 22 Dec 10:23:07 10:27:44 67° 101° (E) 10:32:24 435.000/436.395/437.385
DX 1 22 Dec 10:33:23 10:37:42 69° 285° (WNW) 10:42:01 434.975-435.025
BUGSAT 1 22 Dec 10:34:36 10:38:37 59° 75° (ENE) 10:42:37 437.445
TIGRISAT 22 Dec 10:36:59 10:41:16 64° 259° (W) 10:45:42 435.000
HUMSAT D 22 Dec 10:38:35 10:42:46 46° 99° (E) 10:46:56 437.325/437.525
AISAT 22 Dec 10:44:02 10:48:20 48° 100° (E) 10:52:38 437.250
DUCHIFAT 1 22 Dec 10:44:18 10:48:30 82° 257° (WSW) 10:52:43 145.980
CUBEBUG 1 22 Dec 10:44:30 10:47:15 16° 94° (E) 10:50:00 437.445
Oscar 11 22 Dec 10:53:12 10:56:57 29° 289° (WNW) 11:00:42 145.826/435.025
AAUSAT CUBESAT 2 22 Dec 10:57:04 10:58:58 13° 294° (WNW) 11:00:52 437.432
QB50P2 22 Dec 10:59:23 11:03:28 51° 260° (W) 11:07:36 145.880/145.840
JUGNU 22 Dec 11:02:21 11:04:58 13° 168° (SSE) 11:07:35 437.505
UKube-1 22 Dec 11:02:49 11:06:40 32° 289° (WNW) 11:10:30 .
CUSAT 1 22 Dec 11:07:33 11:08:07 10° 299° (WNW) 11:08:41 437.405
UNISAT 6 22 Dec 11:07:52 11:11:35 28° 264° (W) 11:15:25 437.425
POLYITAN 1 22 Dec 11:09:06 11:13:02 39° 261° (W) 11:16:59 437.675
NANOSAT C BR1 22 Dec 11:09:38 11:13:34 39° 261° (W) 11:17:31 145.865
YUBILEINY 22 Dec 11:12:45 11:21:28 75° 82° (E) 11:30:09 435.215
QB50P1 22 Dec 11:24:52 11:28:24 26° 263° (W) 11:31:56 145.935-145.965
CUBEBUG 2 22 Dec 11:26:09 11:29:45 22° 291° (WNW) 11:33:23 437.445
ZACube-1 22 Dec 11:28:23 11:32:13 27° 289° (WNW) 11:36:05 437.345
TISAT 1 22 Dec 11:35:54 11:38:12 14° 93° (E) 11:40:29 437.305
VELOX 1 22 Dec 11:36:21 11:40:30 41° 287° (WNW) 11:44:40 145.980
RS-15 22 Dec 11:37:07 11:48:02 76° 115° (ESE) 11:58:56 29.354- 29.394
50 SAT 22 Dec 11:37:25 11:41:20 41° 286° (WNW) 11:45:15 437.505
ANTELSAT 22 Dec 11:42:24 11:44:01 12° 269° (W) 11:45:38 437.575/2403.000
SPROUT 22 Dec 11:44:52 11:47:46 18° 94° (E) 11:50:40 437.525
ESTCUBE 1 22 Dec 11:45:26 11:49:57 87° 283° (WNW) 11:54:25 437.505/2401.250
FUNcube-1 22 Dec 11:55:39 11:58:11 15° 293° (WNW) 12:00:44 145.935
POPSAT HIP 1 22 Dec 11:56:02 11:57:35 12° 268° (W) 11:59:09 437.405
O/OREOS (USA 219) 22 Dec 12:01:44 12:03:53 13° 261° (W) 12:06:02 437.305
UWE-3 22 Dec 12:02:23 12:03:41 11° 295° (WNW) 12:05:00 435.000/436.395/437.385
SRMSAT 22 Dec 12:10:11 12:12:02 11° 166° (SSE) 12:13:53 437.500
ISS 22 Dec 12:10:41 12:13:34 28° 131° (SE) 12:16:28 145.825
BEESAT 3 22 Dec 12:11:38 12:15:01 26° 112° (ESE) 12:18:28 437.485
HUMSAT D 22 Dec 12:15:56 12:18:08 14° 293° (WNW) 12:20:20 437.325/437.525
CUBEBUG 1 22 Dec 12:19:45 12:23:42 35° 288° (WNW) 12:27:39 437.445
AISAT 22 Dec 12:22:18 12:24:31 14° 294° (WNW) 12:26:44 437.250
Oscar 19 22 Dec 12:26:30 12:30:55 30° 69° (ENE) 12:35:21 437.125/150
PCSat 22 Dec 12:28:50 12:32:55 22° 106° (ESE) 12:37:00 145.827
AIST 2 22 Dec 12:30:21 12:33:01 17° 109° (ESE) 12:35:44 435.215
ITAMSAT 1 22 Dec 12:47:49 12:51:10 18° 65° (ENE) 12:54:31 435.822/435.867
JUGNU 22 Dec 12:49:27 12:53:15 17° 179° (S) 12:57:02 437.505
BEESAT 2 22 Dec 12:52:30 12:56:34 71° 117° (ESE) 13:00:43 435.950
Gurwin Techsat 1B 22 Dec 12:55:34 12:57:43 13° 62° (ENE) 12:59:51 435.225
TISAT 1 22 Dec 13:10:13 13:14:09 39° 287° (WNW) 13:18:05 437.305
YUBILEINY 22 Dec 13:11:39 13:17:13 19° 280° (W) 13:22:49 435.215
SWISSCUBE 22 Dec 13:13:22 13:17:29 29° 97° (E) 13:21:34 437.505
ITUPSAT 1 22 Dec 13:14:44 13:18:45 27° 96° (E) 13:22:44 437.325
SPROUT 22 Dec 13:20:02 13:23:53 33° 288° (WNW) 13:27:44 437.525
BEESAT 22 Dec 13:37:34 13:42:12 49° 100° (E) 13:46:46 436.000
ISS 22 Dec 13:47:20 13:50:08 25° 327° (NNW) 13:52:55 145.825
BEESAT 3 22 Dec 13:49:45 13:53:07 24° 307° (NW) 13:56:32 437.485
RS-15 22 Dec 13:52:11 14:01:26 31° 318° (NW) 14:10:49 29.354- 29.394
AO-7 22 Dec 13:52:36 13:57:10 16° 53° (NE) 14:01:45 29.400- 29.500
M-CUBED/EXP-1 PRIME 22 Dec 13:53:45 13:56:52 21° 98° (E) 13:59:48 437.505
SRMSAT 22 Dec 13:56:45 14:00:27 17° 176° (S) 14:04:08 437.500
STARS 22 Dec 14:04:32 14:05:07 10° 92° (E) 14:05:42 437.465
Oscar 19 22 Dec 14:05:49 14:10:10 28° 264° (W) 14:14:33 437.125/150
AIST 2 22 Dec 14:07:20 14:11:18 38° 304° (NW) 14:15:19 435.215
KKS-1 22 Dec 14:10:05 14:13:23 20° 95° (E) 14:16:41 437.445
PCSat 22 Dec 14:10:52 14:15:59 43° 301° (WNW) 14:21:08 145.827
ITAMSAT 1 22 Dec 14:25:12 14:30:13 50° 260° (W) 14:35:15 435.822/435.867
Gurwin Techsat 1B 22 Dec 14:31:41 14:36:59 75° 258° (WSW) 14:42:18 435.225
BEESAT 2 22 Dec 14:33:59 14:35:18 11° 314° (NW) 14:36:37 435.950
HORYU 2 22 Dec 14:36:21 14:40:35 44° 73° (ENE) 14:44:52 437.375
JUGNU 22 Dec 14:38:20 14:41:32 15° 189° (S) 14:44:44 437.505
SWISSCUBE 22 Dec 14:51:20 14:55:11 25° 291° (WNW) 14:59:02 437.505
ITUPSAT 1 22 Dec 14:52:33 14:56:32 27° 291° (WNW) 15:00:29 437.325
AUBIESAT-1 22 Dec 15:00:39 15:04:48 61° 290° (WNW) 15:08:34 437.475
GONETS M04 22 Dec 15:14:01 15:18:52 16° 65° (ENE) 15:23:39
BEESAT 22 Dec 15:16:50 15:19:35 16° 295° (WNW) 15:22:20 436.000
AIST 1 22 Dec 15:21:05 15:22:32 12° 85° (E) 15:23:59
M-CUBED/EXP-1 PRIME 22 Dec 15:28:20 15:31:52 26° 296° (WNW) 15:35:09 437.505
JAS-2 22 Dec 15:31:19 15:37:13 26° 66° (ENE) 15:42:43 435.910
STARS 22 Dec 15:37:32 15:41:54 59° 285° (WNW) 15:46:16 437.465
AO-7 22 Dec 15:40:20 15:48:39 81° 71° (ENE) 15:57:01 29.400- 29.500
SRMSAT 22 Dec 15:45:26 15:48:53 16° 187° (S) 15:52:19 437.500
KKS-1 22 Dec 15:46:05 15:50:01 31° 289° (WNW) 15:53:58 437.445
HORYU 2 22 Dec 16:15:06 16:17:27 14° 267° (W) 16:19:49 437.375
RS-15 22 Dec 16:15:06 16:19:11 12° 353° (N) 16:23:19 29.354- 29.394
CUTE-I 22 Dec 16:33:05 16:35:04 12° 62° (ENE) 16:37:04 437.470
AIST 1 22 Dec 16:55:28 16:59:42 47° 280° (W) 17:03:55
GONETS M04 22 Dec 17:08:05 17:16:53 89° 84° (E) 17:25:35
MOZHAYETS 4 22 Dec 17:09:54 17:14:28 60° 100° (E) 17:18:59
JAS-2 22 Dec 17:14:15 17:21:49 59° 259° (W) 17:28:46 435.910
Cubesat XI-IV 22 Dec 17:36:40 17:41:49 53° 73° (ENE) 17:46:59 437.490
AO-7 22 Dec 17:36:52 17:42:08 18° 267° (W) 17:47:28 29.400- 29.500
STRAND 1 22 Dec 18:05:36 18:07:54 13° 92° (E) 18:10:12 437.568
CUTE-I 22 Dec 18:09:07 18:14:26 77° 257° (WSW) 18:19:46 437.470
